Kalispell, MT

6:56 PM MST on January 18, 2018 (GMT -0700)
Glacier Park International

Weather History for KGPI - November, 2013

Change the Weather History Date:

Wednesday, November 13, 2013

  Actual Average Record
Temperature  
Mean Temperature 44 °F 33 °F  
Max Temperature 51 °F 41 °F 58 °F (1999)
Min Temperature 36 °F 25 °F -19 °F (1959)
Degree Days  
Heating Degree Days 21 32  
Month to date heating degree days 392 394  
Since 1 July heating degree days 1458 1602  
Cooling Degree Days 0 0  
Month to date cooling degree days 0 0  
Year to date cooling degree days 264 147  
Moisture  
Dew Point 36 °F    
Average Humidity 78    
Maximum Humidity 100    
Minimum Humidity 56    
Precipitation  
Precipitation 0.05 in 0.05 in 0.37 in (1949)
Month to date precipitation 1.95 0.60  
Year to date precipitation 15.31 14.60  
Snow  
Snow 0.00 in - - ()
Month to date snowfall 7.8  
Year to date snowfall 17.9  
Since 1 July snowfall 7.8  
Snow Depth 0.00 in    
Sea Level Pressure  
Sea Level Pressure 30.27 in    
Wind  
Wind Speed 4 mph (SSW)    
Max Wind Speed 14 mph    
Max Gust Speed 20 mph    
Visibility 7 miles    
Events Fog , Rain    
T = Trace of Precipitation, MM = Missing Value Source: NWS Daily Summary

Daily Weather History Graph

Daily Weather History Graph

Search for Another Location

Airport or City:

Trip Planner

Search our weather history database for the weather conditions in past years. The results will help you decide how hot, cold, wet, or windy it might be!

Date:

Astronomy

Nov. 13, 2013 Rise Set
Actual Time 7:41 AM MST 5:00 PM MST
Civil Twilight 7:07 AM MST 5:34 PM MST
Nautical Twilight 6:29 AM MST 6:12 PM MST
Astronomical Twilight 5:53 AM MST 6:48 PM MST
Moon 3:05 PM MST (11/13) 3:21 AM MST (11/13)
Length of Visible Light 10h 26m
Length of Day
9h 18m
Waxing Gibbous, 85% of the Moon is Illuminated
Nov 13
Waxing Gibbous
Nov 17
Full
Nov 25
Last Quarter
Dec 2
New
Dec 9
First Quarter

Hourly Weather History & Observations

Time (MST) Temp. Windchill Dew Point Humidity Pressure Visibility Wind Dir Wind Speed Gust Speed Precip Events Conditions
12:37 AM 37.4 °F - 37.4 °F 100% 30.29 in 9.0 mi Calm Calm - N/A   Overcast
12:55 AM 37.9 °F - 36.0 °F 93% 30.33 in 10.0 mi Calm Calm - 0.00 in Rain Light Rain
1:20 AM 37.4 °F - 37.4 °F 100% 30.28 in 7.0 mi Calm Calm - 0.00 in   Overcast
1:51 AM 37.4 °F - 35.6 °F 93% 30.28 in 6.0 mi Calm Calm - 0.00 in   Overcast
1:55 AM 37.0 °F - 36.0 °F 96% 30.34 in 6.0 mi Calm Calm - 0.00 in   Overcast
2:17 AM 37.4 °F - 37.4 °F 100% 30.27 in 5.0 mi Calm Calm - 0.02 in Rain Light Rain
2:55 AM 37.0 °F - 37.0 °F 100% 30.32 in 3.0 mi Calm Calm - 0.03 in Rain Light Rain
3:14 AM 35.6 °F - 35.6 °F 100% 30.25 in 4.0 mi Calm Calm - 0.00 in   Mostly Cloudy
3:55 AM 37.0 °F - 36.0 °F 96% 30.30 in 5.0 mi Calm Calm - 0.00 in   Overcast
4:10 AM 35.6 °F - 35.6 °F 100% 30.24 in 4.0 mi Calm Calm - N/A   Overcast
4:22 AM 35.6 °F - 35.6 °F 100% 30.24 in 4.0 mi Calm Calm - N/A   Overcast
4:55 AM 36.0 °F 33.3 °F 35.1 °F 97% 30.30 in 4.0 mi SSW 3.5 mph - 0.00 in   Overcast
5:02 AM 37.4 °F - 35.6 °F 93% 30.24 in 4.0 mi Calm Calm - 0.00 in Rain Light Rain
5:09 AM 37.4 °F - 35.6 °F 93% 30.24 in 3.0 mi Calm Calm - 0.01 in Rain Light Rain
5:55 AM 37.0 °F - 36.0 °F 96% 30.29 in 4.0 mi Calm Calm - 0.02 in   Overcast
6:55 AM 37.0 °F 34.5 °F 36.0 °F 96% 30.29 in 6.0 mi WNW 3.5 mph - 0.00 in Rain Light Rain
7:27 AM 37.4 °F - 37.4 °F 100% 30.22 in 2.0 mi Calm Calm - 0.00 in Rain Light Rain
7:55 AM 37.0 °F 32.4 °F 36.0 °F 96% 30.28 in 1.0 mi SSE 5.8 mph - 0.00 in Rain Light Rain
8:06 AM 37.4 °F 32.1 °F 37.4 °F 100% 30.22 in 0.5 mi South 6.9 mph - 0.00 in Fog , Rain Light Rain
8:48 AM 37.4 °F - 37.4 °F 100% 30.23 in 1.5 mi Calm Calm - 0.00 in   Overcast
8:55 AM 37.9 °F - 37.0 °F 97% 30.29 in 6.0 mi Calm Calm - 0.00 in   Overcast
9:55 AM 41.0 °F 39.0 °F 39.0 °F 93% 30.27 in 7.0 mi SSW 3.5 mph - N/A   Overcast
10:55 AM 50.0 °F - 39.9 °F 68% 30.26 in 10.0 mi SW 4.6 mph - N/A   Mostly Cloudy
11:55 AM 44.1 °F - 39.9 °F 85% 30.26 in 10.0 mi Calm Calm - N/A   Overcast
12:55 PM 44.1 °F 41.5 °F 39.0 °F 82% 30.26 in 10.0 mi NE 4.6 mph - N/A   Overcast
1:55 PM 46.0 °F 43.9 °F 39.9 °F 79% 30.24 in 10.0 mi East 4.6 mph - N/A   Overcast
2:55 PM 48.9 °F - 34.0 °F 56% 30.24 in 10.0 mi WSW 9.2 mph - N/A   Overcast
3:55 PM 46.9 °F - 33.1 °F 59% 30.28 in 10.0 mi West 4.6 mph - N/A   Overcast
4:55 PM 45.0 °F 41.8 °F 32.0 °F 60% 30.27 in 10.0 mi SW 5.8 mph - N/A   Overcast
5:55 PM 44.1 °F 37.7 °F 33.1 °F 65% 30.28 in 10.0 mi SSW 12.7 mph - N/A   Overcast
6:55 PM 43.0 °F 38.8 °F 33.1 °F 68% 30.29 in 10.0 mi South 6.9 mph - N/A   Overcast
7:55 PM 42.1 °F 37.1 °F 33.1 °F 70% 30.29 in 10.0 mi SW 8.1 mph - N/A   Overcast
8:55 PM 42.1 °F 37.1 °F 32.0 °F 67% 30.31 in 10.0 mi SSW 8.1 mph - N/A   Mostly Cloudy
9:55 PM 42.1 °F - 32.0 °F 67% 30.29 in 10.0 mi Calm Calm - N/A   Overcast
10:55 PM 43.0 °F - 32.0 °F 65% 30.24 in 10.0 mi North - - N/A   Overcast
11:55 PM 42.1 °F 38.4 °F 32.0 °F 67% 30.23 in 10.0 mi South 5.8 mph - N/A   Overcast